RUDE11 KHIF-KHIF

Flight info

Callsign RUDE11
Flight time 0h 56m
Altitude 22000
Route FUUJN CEVAR BVL D0045 BVL CEVAR
Aircraft F35/M-DILRTUV/S

Departure

Time 2026-04-18 01:37
Airport Hill Air Force Base (KHIF)

Arrival

Time 2026-04-18 02:34
Airport Hill Air Force Base (KHIF)
Time Latitude Longitude Altitude Speed Heading
2026-04-18 01:05 41.11922 -111.98789 4798 ft 0 kts 87°
2026-04-18 01:06 41.11947 -111.98792 4798 ft 0 kts 87°
2026-04-18 01:26 41.11947 -111.98784 4798 ft 4 kts 86°
2026-04-18 01:26 41.11958 -111.98765 4798 ft 4 kts
2026-04-18 01:26 41.12018 -111.98767 4798 ft 11 kts 358°
2026-04-18 01:26 41.12050 -111.98703 4798 ft 11 kts 89°
2026-04-18 01:27 41.12053 -111.98605 4798 ft 10 kts 86°
2026-04-18 01:27 41.12055 -111.98525 4798 ft 5 kts 88°
2026-04-18 01:27 41.12055 -111.98504 4798 ft 0 kts 89°
2026-04-18 01:28 41.12056 -111.98488 4798 ft 3 kts 89°
2026-04-18 01:28 41.12057 -111.98466 4798 ft 3 kts 85°
2026-04-18 01:28 41.12058 -111.98398 4798 ft 9 kts 88°
2026-04-18 01:28 41.12057 -111.98315 4798 ft 9 kts 92°
2026-04-18 01:29 41.12060 -111.98204 4798 ft 12 kts 88°
2026-04-18 01:29 41.12063 -111.98072 4798 ft 15 kts 88°
2026-04-18 01:29 41.12069 -111.97939 4798 ft 14 kts 74°
2026-04-18 01:29 41.12145 -111.97910 4798 ft 11 kts
2026-04-18 01:30 41.12200 -111.97865 4798 ft 11 kts 67°
2026-04-18 01:30 41.12198 -111.97762 4798 ft 11 kts 88°
2026-04-18 01:30 41.12193 -111.97653 4798 ft 15 kts 117°
2026-04-18 01:30 41.12161 -111.97539 4798 ft 13 kts 88°
2026-04-18 01:31 41.12129 -111.97447 4798 ft 11 kts 153°
2026-04-18 01:31 41.12037 -111.97385 4798 ft 16 kts 153°
2026-04-18 01:31 41.11932 -111.97315 4798 ft 19 kts 153°
2026-04-18 01:31 41.11816 -111.97237 4797 ft 18 kts 151°
2026-04-18 01:32 41.11709 -111.97163 4797 ft 17 kts 152°
2026-04-18 01:32 41.11606 -111.97093 4797 ft 17 kts 152°
2026-04-18 01:32 41.11495 -111.97017 4797 ft 17 kts 153°
2026-04-18 01:32 41.11390 -111.96946 4797 ft 16 kts 153°
2026-04-18 01:33 41.11293 -111.96880 4797 ft 15 kts 153°
2026-04-18 01:33 41.11203 -111.96819 4797 ft 14 kts 153°
2026-04-18 01:33 41.11116 -111.96761 4797 ft 16 kts 153°
2026-04-18 01:33 41.11004 -111.96684 4797 ft 18 kts 153°
2026-04-18 01:34 41.10894 -111.96609 4797 ft 17 kts 153°
2026-04-18 01:34 41.10790 -111.96540 4797 ft 16 kts 153°
2026-04-18 01:34 41.10703 -111.96480 4797 ft 10 kts 153°
2026-04-18 01:34 41.10686 -111.96404 4797 ft 10 kts 81°
2026-04-18 01:35 41.10712 -111.96327 4796 ft 9 kts 60°
2026-04-18 01:35 41.10724 -111.96296 4796 ft 0 kts 65°
2026-04-18 01:36 41.10726 -111.96290 4796 ft 4 kts 61°
2026-04-18 01:36 41.10772 -111.96241 4796 ft 13 kts
2026-04-18 01:36 41.10867 -111.96285 4796 ft 10 kts 334°
2026-04-18 01:36 41.10876 -111.96291 4796 ft 2 kts 333°
2026-04-18 01:37 41.11406 -111.96653 4797 ft 190 kts 332°
2026-04-18 01:37 41.13133 -111.97826 5408 ft 362 kts 332°
2026-04-18 01:37 41.14038 -112.00426 6713 ft 361 kts 234°
2026-04-18 01:37 41.11697 -112.02405 7763 ft 421 kts 209°
2026-04-18 01:38 41.09544 -112.04341 8363 ft 346 kts 235°
2026-04-18 01:38 41.08761 -112.07185 8487 ft 343 kts 260°
2026-04-18 01:38 41.08558 -112.10436 8618 ft 361 kts 271°
2026-04-18 01:38 41.08678 -112.13852 8727 ft 375 kts 274°
2026-04-18 01:39 41.08819 -112.17214 8882 ft 364 kts 271°
2026-04-18 01:39 41.08738 -112.20520 8958 ft 354 kts 269°
2026-04-18 01:39 41.08745 -112.23812 9014 ft 361 kts 272°
2026-04-18 01:39 41.08867 -112.27182 9096 ft 369 kts 274°
2026-04-18 01:40 41.08347 -112.30576 9842 ft 386 kts 240°
2026-04-18 01:40 41.07297 -112.32525 10842 ft 392 kts 236°
2026-04-18 01:40 41.05126 -112.36427 12754 ft 397 kts 237°
2026-04-18 01:40 41.03478 -112.39387 14072 ft 404 kts 238°
2026-04-18 01:41 41.02362 -112.41394 14638 ft 413 kts 239°
2026-04-18 01:41 41.00068 -112.45539 15089 ft 413 kts 239°
2026-04-18 01:41 40.98409 -112.48502 15099 ft 388 kts 239°
2026-04-18 01:41 40.97344 -112.50386 15065 ft 382 kts 239°
2026-04-18 01:42 40.95693 -112.53322 15036 ft 428 kts 239°
2026-04-18 01:42 40.93950 -112.56463 15024 ft 423 kts 239°
2026-04-18 01:42 40.92212 -112.59584 15010 ft 420 kts 239°
2026-04-18 01:42 40.90490 -112.62671 15017 ft 419 kts 239°
2026-04-18 01:43 40.88755 -112.65779 15024 ft 421 kts 239°
2026-04-18 01:43 40.87015 -112.68889 15020 ft 419 kts 239°
2026-04-18 01:43 40.85272 -112.72002 15014 ft 420 kts 239°
2026-04-18 01:43 40.83555 -112.75065 15013 ft 420 kts 239°
2026-04-18 01:44 40.81800 -112.78187 14995 ft 419 kts 238°
2026-04-18 01:44 40.80092 -112.81209 15004 ft 416 kts 239°
2026-04-18 01:44 40.78620 -112.84533 14944 ft 413 kts 255°
2026-04-18 01:44 40.78012 -112.88164 14918 ft 400 kts 271°
2026-04-18 01:45 40.78045 -112.91825 14965 ft 397 kts 276°
2026-04-18 01:45 40.77971 -112.95498 14990 ft 402 kts 268°
2026-04-18 01:45 40.77547 -112.99111 14997 ft 406 kts 265°
2026-04-18 01:45 40.77078 -113.02779 14990 ft 403 kts 265°
2026-04-18 01:46 40.76606 -113.06448 14995 ft 404 kts 265°
2026-04-18 01:46 40.76132 -113.10118 15001 ft 405 kts 265°
2026-04-18 01:46 40.75656 -113.13794 14989 ft 408 kts 265°
2026-04-18 01:46 40.75182 -113.17438 15006 ft 406 kts 265°
2026-04-18 01:47 40.74136 -113.20961 14883 ft 423 kts 239°
2026-04-18 01:47 40.71932 -113.23616 14839 ft 442 kts 214°
2026-04-18 01:47 40.69091 -113.25255 14883 ft 446 kts 207°
2026-04-18 01:47 40.66234 -113.26765 14959 ft 447 kts 206°
2026-04-18 01:48 40.63347 -113.28285 15032 ft 442 kts 207°
2026-04-18 01:48 40.60639 -113.29684 15051 ft 395 kts 207°
2026-04-18 01:48 40.58196 -113.30908 15013 ft 355 kts 206°
2026-04-18 01:48 40.56015 -113.31962 14926 ft 320 kts 206°
2026-04-18 01:49 40.54014 -113.32890 14779 ft 287 kts 206°
2026-04-18 01:49 40.52013 -113.33819 14771 ft 328 kts 206°
2026-04-18 01:49 40.49699 -113.34956 14887 ft 380 kts 206°
2026-04-18 01:49 40.47052 -113.36306 15107 ft 433 kts 206°
2026-04-18 01:50 40.44174 -113.37816 15402 ft 453 kts 206°
2026-04-18 01:50 40.41278 -113.39329 15517 ft 442 kts 206°
2026-04-18 01:50 40.38434 -113.40806 15577 ft 438 kts 206°
2026-04-18 01:50 40.35591 -113.42282 15643 ft 437 kts 207°
2026-04-18 01:51 40.32764 -113.43752 15671 ft 448 kts 206°
2026-04-18 01:51 40.29811 -113.45300 15771 ft 461 kts 207°
2026-04-18 01:51 40.26793 -113.46891 15861 ft 470 kts 207°
2026-04-18 01:51 40.23768 -113.48491 15920 ft 477 kts 207°
2026-04-18 01:52 40.20677 -113.50127 15952 ft 477 kts 206°
2026-04-18 01:52 40.17438 -113.50885 15937 ft 465 kts 191°
2026-04-18 01:52 40.14280 -113.51407 15938 ft 455 kts 191°
2026-04-18 01:52 40.11093 -113.51935 16037 ft 475 kts 191°
2026-04-18 01:53 40.07861 -113.51723 16048 ft 479 kts 146°
2026-04-18 01:53 40.04907 -113.49183 16020 ft 519 kts 147°
2026-04-18 01:53 40.01809 -113.48428 16083 ft 448 kts 202°
2026-04-18 01:54 39.95388 -113.50104 16181 ft 495 kts 191°
2026-04-18 01:54 39.93020 -113.52093 16062 ft 404 kts 283°
2026-04-18 01:54 39.93950 -113.55895 16112 ft 493 kts 289°
2026-04-18 01:54 39.92787 -113.57685 16634 ft 353 kts 104°
2026-04-18 01:55 39.94038 -113.55663 15547 ft 398 kts 16°
2026-04-18 01:55 39.97319 -113.54142 15524 ft 571 kts 20°
2026-04-18 01:55 39.98601 -113.49798 15739 ft 586 kts 123°
2026-04-18 01:55 39.94898 -113.48729 17508 ft 584 kts 134°
2026-04-18 01:56 39.93491 -113.45230 18077 ft 348 kts 166°
2026-04-18 01:56 39.93344 -113.43394 15136 ft 288 kts 20°
2026-04-18 01:56 39.94155 -113.42248 18131 ft 205 kts 39°
2026-04-18 01:56 39.94653 -113.42677 14132 ft 262 kts 285°
2026-04-18 01:57 39.95006 -113.45534 14952 ft 346 kts 279°
2026-04-18 01:57 39.93414 -113.47864 15146 ft 402 kts 224°
2026-04-18 01:57 39.91132 -113.50213 15160 ft 424 kts 224°
2026-04-18 01:57 39.88777 -113.52611 15151 ft 431 kts 223°
2026-04-18 01:58 39.86424 -113.54994 15366 ft 397 kts 223°
2026-04-18 01:58 39.84370 -113.57065 16345 ft 380 kts 225°
2026-04-18 01:58 39.82262 -113.59345 16304 ft 423 kts 225°
2026-04-18 01:58 39.79883 -113.61957 16330 ft 445 kts 225°
2026-04-18 01:59 39.77464 -113.64579 16354 ft 444 kts 225°
2026-04-18 01:59 39.75072 -113.67116 16228 ft 450 kts 224°
2026-04-18 01:59 39.72730 -113.69828 17364 ft 460 kts 226°
2026-04-18 01:59 39.70406 -113.72424 16714 ft 431 kts 226°
2026-04-18 02:00 39.68108 -113.74975 15977 ft 449 kts 226°
2026-04-18 02:00 39.65785 -113.77575 15939 ft 439 kts 225°
2026-04-18 02:00 39.63685 -113.80441 15851 ft 438 kts 266°
2026-04-18 02:00 39.65255 -113.83060 15857 ft 415 kts
2026-04-18 02:01 39.67744 -113.80740 15705 ft 490 kts 27°
2026-04-18 02:01 39.71025 -113.79556 15951 ft 471 kts
2026-04-18 02:01 39.74172 -113.78361 16456 ft 462 kts 16°
2026-04-18 02:01 39.76776 -113.76441 16283 ft 433 kts 45°
2026-04-18 02:02 39.78505 -113.72899 14641 ft 444 kts 59°
2026-04-18 02:02 39.79975 -113.69525 15680 ft 485 kts 52°
2026-04-18 02:02 39.82371 -113.65780 16180 ft 550 kts 40°
2026-04-18 02:02 39.85082 -113.62913 16118 ft 475 kts 27°
2026-04-18 02:03 39.87908 -113.61103 16075 ft 436 kts 18°
2026-04-18 02:03 39.90341 -113.58691 16121 ft 483 kts 39°
2026-04-18 02:03 39.93088 -113.55205 16156 ft 591 kts 40°
2026-04-18 02:03 39.96091 -113.51414 16090 ft 602 kts 40°
2026-04-18 02:04 39.99068 -113.47675 16060 ft 517 kts 40°
2026-04-18 02:04 40.01701 -113.44525 16116 ft 504 kts 15°
2026-04-18 02:04 40.05099 -113.43740 16245 ft 508 kts
2026-04-18 02:04 40.08133 -113.42246 16424 ft 481 kts 40°
2026-04-18 02:05 40.10450 -113.39209 16527 ft 472 kts 40°
2026-04-18 02:05 40.10018 -113.35731 16480 ft 478 kts 136°
2026-04-18 02:05 40.07735 -113.34431 15785 ft 289 kts 266°
2026-04-18 02:05 40.07899 -113.37158 16305 ft 397 kts 252°
2026-04-18 02:06 40.05448 -113.38785 16788 ft 452 kts 101°
2026-04-18 02:06 40.06562 -113.38467 15167 ft 321 kts 271°
2026-04-18 02:06 40.05011 -113.40759 16533 ft 244 kts 179°
2026-04-18 02:06 40.03530 -113.40812 17502 ft 228 kts 261°
2026-04-18 02:07 40.04583 -113.40964 15258 ft 327 kts 21°
2026-04-18 02:07 40.07383 -113.41284 15537 ft 478 kts 339°
2026-04-18 02:07 40.09693 -113.42190 18545 ft 396 kts 341°
2026-04-18 02:07 40.13120 -113.43547 16048 ft 583 kts 341°
2026-04-18 02:08 40.12807 -113.45318 14820 ft 303 kts 138°
2026-04-18 02:08 40.10485 -113.44553 14819 ft 403 kts 194°
2026-04-18 02:08 40.07397 -113.45732 16162 ft 526 kts 201°
2026-04-18 02:08 40.03445 -113.46731 17398 ft 608 kts 160°
2026-04-18 02:09 40.00776 -113.42773 17168 ft 565 kts 124°
2026-04-18 02:09 39.98583 -113.38790 17371 ft 517 kts 124°
2026-04-18 02:09 39.97890 -113.35156 18075 ft 365 kts 40°
2026-04-18 02:09 39.99781 -113.32620 18244 ft 422 kts 37°
2026-04-18 02:10 40.02446 -113.30808 18083 ft 453 kts
2026-04-18 02:10 40.05539 -113.29977 18024 ft 467 kts
2026-04-18 02:10 40.08795 -113.29101 18109 ft 476 kts
2026-04-18 02:10 40.12001 -113.28233 18177 ft 465 kts
2026-04-18 02:11 40.15050 -113.27210 18156 ft 448 kts 20°
2026-04-18 02:11 40.17472 -113.24810 17634 ft 424 kts 38°
2026-04-18 02:11 40.19397 -113.22005 16915 ft 408 kts 45°
2026-04-18 02:11 40.21120 -113.18939 16115 ft 431 kts 50°
2026-04-18 02:12 40.22777 -113.15625 15462 ft 438 kts 50°
2026-04-18 02:12 40.25061 -113.13618 15412 ft 400 kts 355°
2026-04-18 02:12 40.27848 -113.14406 15478 ft 411 kts 343°
2026-04-18 02:12 40.30587 -113.15310 15491 ft 396 kts 344°
2026-04-18 02:13 40.33391 -113.14427 14954 ft 502 kts 23°
2026-04-18 02:13 40.36846 -113.12179 14935 ft 579 kts 22°
2026-04-18 02:13 40.40339 -113.09950 15011 ft 545 kts 22°
2026-04-18 02:13 40.43799 -113.07915 15024 ft 536 kts
2026-04-18 02:14 40.46694 -113.09162 15079 ft 415 kts 316°
2026-04-18 02:14 40.48597 -113.11863 14939 ft 422 kts 308°
2026-04-18 02:14 40.50460 -113.14902 14994 ft 439 kts 319°
2026-04-18 02:14 40.52976 -113.17395 14867 ft 423 kts 321°
2026-04-18 02:15 40.55152 -113.19688 15134 ft 388 kts 321°
2026-04-18 02:15 40.57188 -113.21890 15137 ft 379 kts 320°
2026-04-18 02:15 40.59509 -113.23463 15047 ft 372 kts 343°
2026-04-18 02:15 40.62070 -113.23564 15007 ft 375 kts
2026-04-18 02:16 40.64505 -113.22452 14931 ft 368 kts 15°
2026-04-18 02:16 40.66938 -113.21252 15110 ft 384 kts 16°
2026-04-18 02:16 40.69397 -113.19985 15457 ft 378 kts 16°
2026-04-18 02:16 40.71795 -113.18667 15765 ft 379 kts 18°
2026-04-18 02:17 40.74221 -113.17257 15699 ft 367 kts 18°
2026-04-18 02:17 40.76514 -113.15604 15745 ft 386 kts 28°
2026-04-18 02:17 40.78469 -113.13287 14716 ft 378 kts 48°
2026-04-18 02:17 40.79876 -113.10425 14848 ft 369 kts 48°
2026-04-18 02:18 40.81422 -113.07657 14633 ft 374 kts 47°
2026-04-18 02:18 40.83026 -113.04965 14409 ft 372 kts 45°
2026-04-18 02:18 40.84598 -113.02308 14133 ft 366 kts 50°
2026-04-18 02:18 40.85990 -112.99444 14150 ft 369 kts 52°
2026-04-18 02:19 40.87355 -112.96542 14224 ft 372 kts 52°
2026-04-18 02:19 40.88698 -112.93626 14284 ft 375 kts 55°
2026-04-18 02:19 40.89886 -112.90587 14304 ft 373 kts 57°
2026-04-18 02:19 40.90927 -112.87438 14181 ft 367 kts 62°
2026-04-18 02:20 40.91934 -112.84361 14247 ft 378 kts 60°
2026-04-18 02:20 40.93058 -112.81176 14138 ft 398 kts 59°
2026-04-18 02:20 40.94177 -112.78043 14136 ft 374 kts 63°
2026-04-18 02:20 40.95172 -112.74855 14127 ft 375 kts 61°
2026-04-18 02:21 40.96229 -112.71741 13648 ft 378 kts 59°
2026-04-18 02:21 40.97352 -112.68692 12537 ft 365 kts 59°
2026-04-18 02:21 40.98450 -112.65694 11447 ft 358 kts 60°
2026-04-18 02:21 40.99185 -112.63751 10899 ft 340 kts 58°
2026-04-18 02:22 41.00348 -112.60888 11093 ft 367 kts 58°
2026-04-18 02:22 41.01551 -112.57993 11075 ft 359 kts 57°
2026-04-18 02:22 41.02677 -112.55122 11033 ft 361 kts 64°
2026-04-18 02:22 41.03572 -112.51960 11005 ft 406 kts 65°
2026-04-18 02:23 41.04666 -112.48257 11069 ft 412 kts 66°
2026-04-18 02:23 41.05720 -112.44649 10990 ft 408 kts 66°
2026-04-18 02:23 41.06750 -112.41093 11004 ft 418 kts 68°
2026-04-18 02:23 41.07621 -112.37496 11012 ft 417 kts 69°
2026-04-18 02:24 41.08497 -112.33857 10637 ft 411 kts 75°
2026-04-18 02:24 41.08836 -112.30105 9636 ft 409 kts 87°
2026-04-18 02:24 41.08942 -112.26380 8714 ft 404 kts 86°
2026-04-18 02:24 41.09161 -112.22720 8028 ft 391 kts 83°
2026-04-18 02:25 41.09167 -112.19117 7843 ft 406 kts 101°
2026-04-18 02:25 41.08062 -112.15787 7392 ft 389 kts 125°
2026-04-18 02:25 41.06546 -112.12765 7270 ft 399 kts 124°
2026-04-18 02:25 41.05063 -112.09711 7002 ft 391 kts 122°
2026-04-18 02:26 41.03686 -112.06571 6961 ft 393 kts 120°
2026-04-18 02:26 41.02341 -112.03429 6837 ft 390 kts 120°
2026-04-18 02:26 41.01208 -112.00262 7080 ft 404 kts 105°
2026-04-18 02:26 41.01486 -111.96754 7194 ft 398 kts 62°
2026-04-18 02:27 41.03672 -111.94618 7051 ft 406 kts 16°
2026-04-18 02:27 41.06319 -111.93933 5858 ft 355 kts
2026-04-18 02:27 41.08810 -111.94735 6163 ft 401 kts 330°
2026-04-18 02:27 41.11280 -111.96483 5993 ft 390 kts 332°
2026-04-18 02:28 41.13470 -111.98150 6023 ft 332 kts 298°
2026-04-18 02:28 41.12444 -111.99482 6027 ft 270 kts 157°
2026-04-18 02:28 41.10844 -111.98355 6056 ft 261 kts 151°
2026-04-18 02:28 41.09187 -111.97089 6097 ft 290 kts 151°
2026-04-18 02:29 41.07434 -111.95735 6070 ft 281 kts 138°
2026-04-18 02:29 41.07792 -111.94339 5751 ft 177 kts 355°
2026-04-18 02:29 41.08890 -111.94927 5298 ft 168 kts 332°
2026-04-18 02:29 41.09977 -111.95668 4942 ft 175 kts 333°
2026-04-18 02:30 41.11026 -111.96380 4799 ft 157 kts 333°
2026-04-18 02:30 41.12301 -111.97243 4930 ft 308 kts 333°
2026-04-18 02:30 41.13330 -111.98983 6656 ft 219 kts 213°
2026-04-18 02:30 41.11644 -111.98648 6407 ft 260 kts 160°
2026-04-18 02:31 41.10039 -111.97817 6239 ft 236 kts 159°
2026-04-18 02:31 41.08581 -111.97000 6179 ft 223 kts 158°
2026-04-18 02:31 41.07136 -111.96167 6203 ft 227 kts 157°
2026-04-18 02:31 41.06073 -111.94850 5973 ft 225 kts 82°
2026-04-18 02:32 41.07050 -111.93747 5715 ft 184 kts 342°
2026-04-18 02:32 41.08226 -111.94488 5292 ft 189 kts 333°
2026-04-18 02:32 41.09352 -111.95236 5024 ft 173 kts 333°
2026-04-18 02:32 41.10423 -111.95958 4849 ft 176 kts 333°
2026-04-18 02:33 41.11406 -111.96625 4797 ft 129 kts 333°
2026-04-18 02:33 41.11977 -111.97023 4797 ft 57 kts 329°
2026-04-18 02:33 41.12313 -111.97261 4799 ft 53 kts 332°
2026-04-18 02:33 41.12632 -111.97476 4798 ft 51 kts 334°
2026-04-18 02:34 41.12929 -111.97674 4800 ft 45 kts 332°
2026-04-18 02:34 41.13133 -111.97819 4801 ft 16 kts 330°
2026-04-18 02:34 41.13142 -111.97928 4800 ft 14 kts 242°
2026-04-18 02:34 41.13098 -111.98046 4799 ft 17 kts 242°
2026-04-18 02:35 41.13024 -111.98235 4799 ft 25 kts 241°
2026-04-18 02:35 41.12881 -111.98316 4799 ft 24 kts 178°
2026-04-18 02:35 41.12715 -111.98319 4799 ft 24 kts 180°
2026-04-18 02:35 41.12548 -111.98319 4799 ft 24 kts 180°
2026-04-18 02:36 41.12381 -111.98319 4798 ft 24 kts 180°
2026-04-18 02:36 41.12213 -111.98318 4798 ft 24 kts 179°
2026-04-18 02:36 41.12080 -111.98317 4798 ft 11 kts 182°
2026-04-18 02:36 41.12010 -111.98333 4798 ft 10 kts 158°
2026-04-18 02:37 41.12010 -111.98298 4798 ft 0 kts 54°